This demonstration page uses our WeatherBlox Daily Observations layout. Learn more.

41.55636, -103.73856

Hourly Observations for May 24, 2015

Temp ( °F °C ) Dew Point ( °F °C ) Humidity (%) Winds ( mph kmh ) Pressure ( in mb ) Visibility ( mi km ) Precip ( " mm )
12:53 am 00:53 Cloudy with Light Rain 53 11.7 52 11.1 96 96 S 5 7 29.85 1011 6 9.65604 0.03 0.762
1:14 am 01:14 Cloudy with Light Rain 52 11.1 51 10.6 97 97 ESE 10 17 29.88 1012 7 11.26538 0.02 0.508
1:17 am 01:17 Cloudy with Light Rain 52 11.1 51 10.6 97 97 SE 9 15 29.88 1012 7 11.26538 0.02 0.508
1:53 am 01:53 Cloudy with Light Rain 51 10.6 50 10 96 96 SE 9 15 29.87 1012 10 16.0934 0.03 0.762
2:01 am 02:01 Cloudy with Light Rain 51 10.6 50 10 96 96 SSE 7 11 29.88 1012 9 14.48406 0 0.0254
2:25 am 02:25 Cloudy with Light Rain 51 10.6 50 10 96 96 Calm 29.88 1012 8 12.87472 0.02 0.508
2:32 am 02:32 Cloudy with Light Rain 52 11 50 10 94 94 S 3 6 29.88 1012 10 16.0934 0 0
2:37 am 02:37 Cloudy 51 10.6 50 10 96 96 SE 5 7 29.88 1012 10 16.0934 0.02 0.508
2:53 am 02:53 Cloudy 52 11.1 50 10 93 93 SE 6 9 29.86 1011 10 16.0934 0.02 0.508
3:09 am 03:09 Cloudy 52 11.1 50 10 93 93 SE 6 9 29.88 1012 10 16.0934 0 0
3:41 am 03:41 Cloudy 52 11.1 51 10.6 97 97 SE 5 7 29.88 1012 9 14.48406 0 0
3:53 am 03:53 Cloudy 52 11.1 51 10.6 97 97 Calm 29.83 1010 8 12.87472 0 0
4:51 am 04:51 Cloudy 52 11 52 11 100 100 SE 3 6 29.83 1010 8 12.87472 0 0
4:53 am 04:53 Cloudy 52 11.1 51 10.6 97 97 SE 3 6 29.83 1010 8 12.87472 0 0
5:50 am 05:50 Cloudy with Mist and Fog 52 11 52 11 100 100 ESE 5 7 29.88 1012 4 6.43736 0 0
5:53 am 05:53 Cloudy with Mist and Fog 51 10.6 51 10.6 100 100 ESE 5 7 29.85 1011 4 6.43736 0 0
6:09 am 06:09 Cloudy with Mist and Fog 52 11.1 51 10.6 97 97 undefined N/A 29.88 1012 6 9.65604 0 0
6:42 am 06:42 Mostly Cloudy with Mist and Fog 52 11 52 11 100 100 SE 3 6 29.88 1012 6 9.65604 0 0
6:53 am 06:53 Cloudy 52 11.1 51 10.6 97 97 SSE 3 6 29.84 1011 8 12.87472 0 0
7:08 am 07:08 Mostly Cloudy 52 11 52 11 100 100 Calm 29.83 1010 10 16.0934 0 0
7:20 am 07:20 Mostly Cloudy 54 12 52 11 94 94 Calm 29.83 1010 10 16.0934 0 0
7:27 am 07:27 Mostly Cloudy 52 11.1 51 10.6 97 97 SSE 3 6 29.83 1010 10 16.0934 0 0
7:53 am 07:53 Cloudy 53 11.7 51 10.6 93 93 Calm 29.83 1010 10 16.0934 0 0
8:43 am 08:43 Mostly Cloudy 55 12.8 50 10 83 83 SSW 3 6 29.8 1009 10 16.0934 0 0
8:53 am 08:53 Mostly Cloudy 56 13.3 50 10 81 81 Calm 29.81 1010 10 16.0934 0 0
9:53 am 09:53 Mostly Cloudy 58 14.4 49 9.4 72 72 VRB 3 6 29.81 1010 10 16.0934 0 0
10:53 am 10:53 Mostly Cloudy 60 15.6 51 10.6 72 72 E 6 9 29.81 1009 10 16.0934 0 0
11:27 am 11:27 Mostly Cloudy 61 16.1 50 10 67 67 ESE 7 11 29.77 1008 10 16.0934 0 0
11:53 am 11:53 Mostly Cloudy 63 17.2 51 10.6 65 65 ESE 7 11 29.79 1009 10 16.0934 0 0
12:34 pm 12:34 Mostly Cloudy 63 17 50 10 64 64 ESE 8 13 29.71 1006 10 16.0934 0 0
12:53 pm 12:53 Partly Cloudy 64 17.8 50 10 60 60 ENE 7 11 29.76 1008 10 16.0934 0 0
1:53 pm 13:53 Sunny 66 18.9 49 9.4 54 54 undefined N/A 29.74 1007 10 16.0934 0 0
2:53 pm 14:53 Partly Cloudy 68 20 49 9.4 51 51 SE 8 13 29.72 1006 10 16.0934 0 0
3:53 pm 15:53 Sunny 68 20 46 7.8 45 45 VRB 3 6 29.7 1006 10 16.0934 0 0
4:53 pm 16:53 Sunny 67 19.4 46 7.8 47 47 SSE 9 15 29.69 1005 10 16.0934 0 0
5:53 pm 17:53 Sunny 65 18.3 46 7.8 51 51 SSE 7 11 29.69 1005 10 16.0934 0 0
6:26 pm 18:26 Mostly Cloudy with Nearby Thunderstorms 61 16 46 8 59 59 W 20 31 29.65 1004 10 16.0934 0 0
6:43 pm 18:43 Partly Cloudy with Nearby Thunderstorms 56 13.3 44 6.7 65 65 W 14 22 29.71 1006 10 16.0934 0 0
6:53 pm 18:53 Partly Cloudy 56 13.3 44 6.7 65 65 W 13 20 29.74 1007 10 16.0934 0 0
7:53 pm 19:53 Mostly Sunny 55 12.8 47 8.3 74 74 WNW 12 19 29.73 1007 10 16.0934 0 0.0254
8:53 pm 20:53 Mostly Cloudy 54 12.2 49 9.4 83 83 W 7 11 29.75 1008 10 16.0934 0 0
9:17 pm 21:17 Cloudy 54 12.2 50 10 87 87 Calm 29.77 1008 10 16.0934 0 0
9:40 pm 21:40 Cloudy 55 13 48 9 77 77 NE 12 19 29.74 1007 10 16.0934 0 0
9:53 pm 21:53 Cloudy with Light Rain 53 11.7 50 10 89 89 NE 8 13 29.77 1008 8 12.87472 0.01 0.254
10:53 pm 22:53 Cloudy 53 11.7 50 10 89 89 S 6 9 29.77 1008 10 16.0934 0.07 1.778
11:12 pm 23:12 Cloudy 54 12 50 10 88 88 VRB 6 9 29.8 1009 10 16.0934 0 0
11:53 pm 23:53 Cloudy 54 12.2 50 10 87 87 ENE 10 17 29.76 1008 10 16.0934 0 0

Powered by AerisWeather